2023/08/19 00:00:00, 1.6,21.4
2023/08/19 00:10:00, 1.6,21.4
2023/08/19 00:20:00, 1.7,21.4
2023/08/19 00:30:00, 1.7,21.2
2023/08/19 00:40:00, 1.8,21.2
2023/08/19 00:50:00, 1.9,21.2
2023/08/19 01:00:00, 1.7,21.3
2023/08/19 01:10:00, 1.9,21.3
2023/08/19 01:20:00, 1.9,21.1
2023/08/19 01:30:00, 1.9,21.3
2023/08/19 01:40:00, 1.8,21.3
2023/08/19 01:50:00, 1.9,21.1
2023/08/19 02:00:00, 1.5,21.0
2023/08/19 02:10:00, 1.4,21.0
2023/08/19 02:20:00, 1.5,20.9
2023/08/19 02:30:00, 1.5,20.9
2023/08/19 02:40:00, 1.6,21.2
2023/08/19 02:50:00, 1.5,20.9
2023/08/19 03:00:00, 1.6,21.0
2023/08/19 03:10:00, 1.5,21.1
2023/08/19 03:20:00, 1.6,21.1
2023/08/19 03:30:00, 1.8,21.5
2023/08/19 03:40:00, 1.9,21.1
2023/08/19 03:50:00, 1.9,21.1
2023/08/19 04:00:00, 2.0,21.2
2023/08/19 04:10:00, 1.9,20.9
2023/08/19 04:20:00, 1.9,21.0
2023/08/19 04:30:00, 1.9,20.7
2023/08/19 04:40:00, 1.9,20.9
2023/08/19 04:50:00, 1.9,20.9
2023/08/19 05:00:00, 1.8,21.0
2023/08/19 05:10:00, 1.8,21.2
2023/08/19 05:20:00, 1.9,21.4
2023/08/19 05:30:00, 2.1,21.0
2023/08/19 05:40:00, 2.1,20.8
2023/08/19 05:50:00, 1.9,21.3
2023/08/19 06:00:00, 1.8,21.3
2023/08/19 06:10:00, 1.5,21.4
2023/08/19 06:20:00, 1.9,21.7
2023/08/19 06:30:00, 1.5,22.2
2023/08/19 06:40:00,---,22.5
2023/08/19 06:50:00, 1.3,22.6
2023/08/19 07:00:00, 1.5,23.3
2023/08/19 07:10:00, 1.1,23.8
2023/08/19 07:20:00, 1.3,24.4
2023/08/19 07:30:00, 1.3,26.3
2023/08/19 07:40:00, 1.1,27.0
2023/08/19 07:50:00, 1.1,29.2
2023/08/19 08:00:00, 1.1,29.5
2023/08/19 08:10:00, 1.1,28.8
2023/08/19 08:20:00, 1.1,30.0
2023/08/19 08:30:00, 1.1,30.4
2023/08/19 08:40:00, 1.1,30.6
2023/08/19 08:50:00, 1.1,32.0
2023/08/19 09:00:00, 1.1,31.3
2023/08/19 09:10:00, 1.1,31.5
2023/08/19 09:20:00, 1.1,32.3
2023/08/19 09:30:00, 1.1,32.4
2023/08/19 09:40:00, 1.5,31.9
2023/08/19 09:50:00, 1.5,31.7
2023/08/19 10:00:00, 1.5,32.8
2023/08/19 10:10:00, 1.5,34.1
2023/08/19 10:20:00, 1.5,32.8
2023/08/19 10:30:00,11.0,32.8
2023/08/19 10:40:00,10.3,32.7
2023/08/19 10:50:00,10.3,33.7
2023/08/19 11:00:00,10.3,32.5
2023/08/19 11:10:00,11.3,31.9
2023/08/19 11:20:00,11.4,31.8
2023/08/19 11:30:00, 1.9,33.5
2023/08/19 11:40:00,---,34.1
2023/08/19 11:50:00,---,35.0
2023/08/19 12:00:00,---,34.6
2023/08/19 12:10:00,---,34.2
2023/08/19 12:20:00,---,32.7
2023/08/19 12:30:00,---,35.3
2023/08/19 12:40:00,---,34.1
2023/08/19 12:50:00,---,35.8
2023/08/19 13:00:00,---,35.1
2023/08/19 13:10:00,---,37.3
2023/08/19 13:20:00,---,36.5
2023/08/19 13:30:00,---,38.3
2023/08/19 13:40:00,---,36.1
2023/08/19 13:50:00,---,35.6
2023/08/19 14:00:00,---,33.8
2023/08/19 14:10:00,---,33.6
2023/08/19 14:20:00, 0.0,34.9
2023/08/19 14:30:00, 0.2,35.2
2023/08/19 14:40:00, 0.2,36.7
2023/08/19 14:50:00, 0.2,37.9
2023/08/19 15:00:00, 9.7,35.9
2023/08/19 15:10:00, 9.7,34.3
2023/08/19 15:20:00, 9.7,38.5
2023/08/19 15:30:00, 9.6,39.4
2023/08/19 15:40:00, 9.6,36.6
2023/08/19 15:50:00,---,35.1
2023/08/19 16:00:00,---,33.8
2023/08/19 16:10:00,---,33.4
2023/08/19 16:20:00,---,33.0
2023/08/19 16:30:00,10.8,33.6
2023/08/19 16:40:00,---,33.1
2023/08/19 16:50:00,---,32.9
2023/08/19 17:00:00,10.2,33.1
2023/08/19 17:10:00,---,33.0
2023/08/19 17:20:00,10.3,31.3
2023/08/19 17:30:00, 1.1,30.0
2023/08/19 17:40:00, 1.0,29.3
2023/08/19 17:50:00, 0.9,28.4
2023/08/19 18:00:00, 1.4,27.8
2023/08/19 18:10:00, 1.1,27.9
2023/08/19 18:20:00, 1.2,27.4
2023/08/19 18:30:00, 1.3,27.2
2023/08/19 18:40:00, 1.4,27.1
2023/08/19 18:50:00, 1.3,26.7
2023/08/19 19:00:00, 1.2,26.4
2023/08/19 19:10:00, 1.3,25.9
2023/08/19 19:20:00, 1.3,25.8
2023/08/19 19:30:00, 1.3,25.1
2023/08/19 19:40:00, 1.2,25.0
2023/08/19 19:50:00, 1.4,25.0
2023/08/19 20:00:00, 1.3,24.9
2023/08/19 20:10:00, 1.4,24.6
2023/08/19 20:20:00, 1.3,24.3
2023/08/19 20:30:00, 1.4,24.2
2023/08/19 20:40:00, 1.4,24.1
2023/08/19 20:50:00, 1.5,24.0
2023/08/19 21:00:00, 1.5,23.7
2023/08/19 21:10:00, 1.4,23.9
2023/08/19 21:20:00, 1.4,23.5
2023/08/19 21:30:00, 1.4,23.6
2023/08/19 21:40:00, 1.3,23.4
2023/08/19 21:50:00, 1.5,23.4
2023/08/19 22:00:00, 1.6,23.3
2023/08/19 22:10:00, 1.7,23.6
2023/08/19 22:20:00, 1.4,23.3
2023/08/19 22:30:00, 1.5,23.2
2023/08/19 22:40:00, 1.4,23.3
2023/08/19 22:50:00, 1.4,22.8
2023/08/19 23:00:00, 1.4,22.7
2023/08/19 23:10:00, 1.5,22.5
2023/08/19 23:20:00, 1.5,22.7
2023/08/19 23:30:00, 1.4,22.5
2023/08/19 23:40:00, 1.5,22.5
2023/08/19 23:50:00, 1.5,22.3
